Location: Windsor
(43.2292°N, 89.3015°W)
Time: 09:29:53
(UTC+00:00)

N. Korean satellite - Visible Passes

Search period start: 31 March 2023 00:00
Search period end: 10 April 2023 00:00
Orbit: 389 x 416 km, 97.3° (Epoch: 30 March)

Date Brightness Start Highest point End Pass type
(mag) Time Alt. Az. Time Alt. Az. Time Alt. Az.
01 Apr 8.4 10:59:47 10° NE 11:02:33 29° E 11:05:15 10° SSE visible
03 Apr 9.0 10:52:13 10° NE 10:54:43 22° E 10:57:12 10° SSE visible
05 Apr 9.3 10:44:08 10° NE 10:46:17 17° E 10:48:24 10° SE visible
07 Apr 9.5 10:35:39 10° ENE 10:37:12 13° E 10:38:45 10° ESE visible
